Location: Chassagnes
(44.4047°N, 4.1657°E)
Time: 11:26:50
(UTC+00:00)

Cosmos 1606 Rocket - Pass Details

Date: 27 October 2020
Orbit: 604 x 631 km, 82.5° (Epoch: 23 November)

Event Time Altitude Azimuth Distance (km) Brightness Sun altitude
Rises 17:05:11 0° 177° (S) 2,859 7.1 -5.3°
Reaches altitude 10° 17:07:24 10° 173° (S) 1,964 6.2 -5.7°
Maximum altitude 17:11:40 58° 95° (E) 723 3.6 -6.4°
Drops below altitude 10° 17:16:00 10° 16° (NNE) 1,997 5.9 -7.2°
Sets 17:18:17 0° 13° (NNE) 2,913 6.8 -7.6°
